This is the latest recevied weather packets stored in our database for station/object W9KHP-1. If no packets are shown the sender has not sent any weather packets the latest 10 day(s).
| Time | Temp. | Humidity | Pressure | Rain* | Wind** | Luminosity | Snow |
|---|---|---|---|---|---|---|---|
| 1778249280 | 15.56° C | 65% | 1018.3 hPa | 0 mm | - | 171 W/m² | - |
| 1778248977 | 15.56° C | 64% | 1018.3 hPa | 0 mm | - | 80 W/m² | - |
| 1778248673 | 15° C | 64% | 1018.2 hPa | 0 mm | - | 60 W/m² | - |
| 1778248369 | 15° C | 66% | 1018.3 hPa | 0 mm | - | 90 W/m² | - |
| 1778248065 | 15° C | 64% | 1018.2 hPa | 0 mm | - | 53 W/m² | - |
| 1778247763 | 15° C | 67% | 1018.2 hPa | 0 mm | - | 235 W/m² | - |
| 1778247459 | 14.44° C | 67% | 1018.3 hPa | 0 mm | - | 216 W/m² | - |
| 1778247157 | 14.44° C | 67% | 1018.2 hPa | 0 mm | - | 53 W/m² | - |
| 1778246854 | 14.44° C | 67% | 1018.3 hPa | 0 mm | - | 223 W/m² | - |
| 1778246552 | 13.89° C | 67% | 1018.2 hPa | 0 mm | - | 195 W/m² | - |
| 1778246247 | 13.89° C | 67% | 1018.2 hPa | 0 mm | - | 194 W/m² | - |
| 1778245944 | 13.33° C | 69% | 1018.2 hPa | 0 mm | - | 214 W/m² | - |
| 1778245640 | 12.78° C | 69% | 1018 hPa | 0 mm | - | 99 W/m² | - |
| 1778245338 | 12.78° C | 69% | 1018.1 hPa | 0 mm | - | 187 W/m² | - |
| 1778245033 | 12.78° C | 71% | 1018.1 hPa | 0 mm | - | 63 W/m² | - |
| 1778244729 | 12.22° C | 72% | 1017.7 hPa | 0 mm | - | 173 W/m² | - |
| 1778244428 | 11.67° C | 72% | 1017.8 hPa | 0 mm | - | 57 W/m² | - |
| 1778244124 | 11.67° C | 72% | 1017.9 hPa | 0 mm | - | 169 W/m² | - |
| 1778243823 | 11.67° C | 72% | 1018 hPa | 0 mm | - | 150 W/m² | - |
| 1778243521 | 11.11° C | 73% | 1017.8 hPa | 0 mm | - | 144 W/m² | - |
| 1778243216 | 10.56° C | 73% | 1017.7 hPa | 0 mm | - | 119 W/m² | - |
| 1778242913 | 10.56° C | 75% | 1017.9 hPa | 0 mm | - | 37 W/m² | - |
| 1778242611 | 10° C | 76% | 1018.1 hPa | 0 mm | - | 31 W/m² | - |
| 1778242309 | 10° C | 76% | 1017.9 hPa | 0 mm | - | 30 W/m² | - |
| 1778242006 | 10° C | 76% | 1018 hPa | 0 mm | - | 28 W/m² | - |
* Rain latest hour (hover to see other rain measurements)
** Current wind speed in m/s (hover to see current wind gust speed)